Time,TemperatureF,DewpointF,PressureIn,WindDirection,WindDirectionDegrees,WindSpeedMPH,WindSpeedGustMPH,Humidity,HourlyPrecipIn,Conditions,Clouds,dailyrainin,SoftwareType,DateUTC
2013-08-28 12:14:00,84.0,74.0,29.90,NNW,328,2.0,7.0,73,0.00,,,0.00,,2013-08-28 17:14:00,
2013-08-28 12:24:00,85.0,76.0,29.90,NE,43,2.0,6.0,74,0.00,,,0.00,,2013-08-28 17:24:00,
2013-08-28 12:52:00,85.0,76.0,29.90,North,11,3.0,8.0,74,0.00,,,0.00,,2013-08-28 17:52:00,
2013-08-28 13:12:00,85.0,76.0,29.90,NNE,14,4.0,10.0,75,0.00,,,0.00,,2013-08-28 18:12:00,
2013-08-28 13:22:00,86.0,77.0,29.90,NE,36,4.0,6.0,74,0.00,,,0.00,,2013-08-28 18:22:00,
2013-08-28 13:42:00,86.0,77.0,29.90,NNE,14,3.0,9.0,74,0.00,,,0.00,,2013-08-28 18:42:00,
2013-08-28 13:52:00,86.0,77.0,29.90,NW,315,2.0,7.0,74,0.00,,,0.00,,2013-08-28 18:52:00,
2013-08-28 14:12:00,87.0,78.0,29.89,North,10,3.0,6.0,74,0.00,,,0.00,,2013-08-28 19:12:00,
2013-08-28 14:22:00,87.0,77.0,29.90,ENE,58,3.0,7.0,73,0.00,,,0.00,,2013-08-28 19:22:00,
2013-08-28 14:42:00,87.0,78.0,29.90,NW,304,2.0,6.0,74,0.00,,,0.00,,2013-08-28 19:42:00,
2013-08-28 14:52:00,87.0,78.0,29.89,NNW,346,2.0,6.0,75,0.00,,,0.00,,2013-08-28 19:52:00,
2013-08-28 15:12:00,87.0,79.0,29.89,North,9,1.0,5.0,77,0.00,,,0.00,,2013-08-28 20:12:00,
2013-08-28 15:23:00,87.0,78.0,29.89,NW,317,2.0,7.0,75,0.00,,,0.00,,2013-08-28 20:23:00,
2013-08-28 15:43:00,87.0,78.0,29.89,ENE,74,3.0,8.0,74,0.00,,,0.00,,2013-08-28 20:43:00,
2013-08-28 15:52:00,88.0,78.0,29.89,NNE,33,3.0,6.0,72,0.00,,,0.00,,2013-08-28 20:52:00,
2013-08-28 16:12:00,88.0,79.0,29.89,ENE,66,1.0,5.0,74,0.00,,,0.00,,2013-08-28 21:12:00,
2013-08-28 16:22:00,87.0,78.0,29.89,ENE,69,3.0,7.0,75,0.00,,,0.00,,2013-08-28 21:22:00,
2013-08-28 16:57:00,86.0,78.0,29.90,NNE,26,2.0,5.0,77,0.00,,,0.00,,2013-08-28 21:57:00,
2013-08-28 17:15:00,87.0,78.0,29.90,North,355,5.0,9.0,76,0.00,,,0.00,,2013-08-28 22:15:00,
2013-08-28 17:25:00,87.0,79.0,29.90,East,86,2.0,7.0,77,0.00,,,0.00,,2013-08-28 22:25:00,
2013-08-28 17:43:00,86.0,78.0,29.91,NNE,26,1.0,8.0,77,0.00,,,0.00,,2013-08-28 22:43:00,
2013-08-28 17:54:00,86.0,78.0,29.90,NE,42,5.0,10.0,76,0.00,,,0.00,,2013-08-28 22:54:00,
2013-08-28 18:13:00,85.0,77.0,29.90,NNE,22,2.0,8.0,78,0.00,,,0.00,,2013-08-28 23:13:00,
2013-08-28 18:22:00,84.0,77.0,29.90,ESE,102,0.0,8.0,79,0.00,,,0.00,,2013-08-28 23:22:00,
2013-08-28 18:42:00,84.0,76.0,29.91,NNW,346,4.0,10.0,78,0.00,,,0.00,,2013-08-28 23:42:00,
2013-08-28 18:53:00,84.0,76.0,29.91,NNE,20,4.0,7.0,78,0.00,,,0.00,,2013-08-28 23:53:00,
2013-08-28 19:11:00,83.0,75.0,29.91,North,5,0.0,5.0,78,0.00,,,0.00,,2013-08-29 00:11:00,
2013-08-28 20:12:00,82.0,76.0,29.92,ENE,76,1.0,3.0,81,0.00,,,0.00,,2013-08-29 01:12:00,
2013-08-28 20:22:00,81.0,74.0,29.93,ENE,78,2.0,7.0,79,0.00,,,0.00,,2013-08-29 01:22:00,
2013-08-28 20:42:00,81.0,74.0,29.94,SE,134,1.0,5.0,79,0.00,,,0.00,,2013-08-29 01:42:00,
2013-08-28 20:52:00,80.0,74.0,29.94,SE,140,0.0,4.0,81,0.00,,,0.00,,2013-08-29 01:52:00,
2013-08-28 21:11:00,79.0,73.0,29.95,SSE,159,0.0,4.0,82,0.00,,,0.00,,2013-08-29 02:11:00,
2013-08-28 21:22:00,78.0,72.0,29.95,SSE,157,0.0,4.0,83,0.00,,,0.00,,2013-08-29 02:22:00,
2013-08-28 22:11:00,76.0,71.0,29.96,ENE,67,1.0,7.0,84,0.00,,,0.00,,2013-08-29 03:11:00,
2013-08-28 22:23:00,76.0,71.0,29.96,SSE,154,0.0,5.0,85,0.00,,,0.00,,2013-08-29 03:23:00,
2013-08-28 22:45:00,75.0,70.0,29.96,SSE,158,0.0,3.0,85,0.00,,,0.00,,2013-08-29 03:45:00,
2013-08-28 22:56:00,75.0,70.0,29.97,SE,140,0.0,2.0,85,0.00,,,0.00,,2013-08-29 03:56:00,
2013-08-28 23:18:00,75.0,71.0,29.97,ENE,68,0.0,0.0,86,0.00,,,0.00,,2013-08-29 04:18:00,
2013-08-28 23:28:00,74.0,70.0,29.98,ESE,123,0.0,0.0,86,0.00,,,0.00,,2013-08-29 04:28:00,
2013-08-28 23:45:00,74.0,69.0,29.98,ESE,123,0.0,0.0,85,0.00,,,0.00,,2013-08-29 04:45:00,
2013-08-28 23:54:00,74.0,70.0,29.97,SE,126,0.0,0.0,86,0.00,,,0.00,,2013-08-29 04:54:00,